RH
22 23 32 20 20 18 21 22 25 27 30 36 41 47 48 56 67 66 66 61 56 59 39 42 52 53 50 46 36 44 40 42 36 33 43 31 22 20 21 23 27 25 24 25 26 26 29
21 20 19 19 19 21 24 27 30 39 40 41 47 48 57 61 59 61 66 65 60 58 45 43 51 54 48 42 38 39 40 43 42 43 37 33 30 29 29 31 28 31 32 33 29 31 32
25 21 19 18 22 24 29 40 35 34 41 45 51 58 55 57 54 52 54 55 53 54 48 47 51 51 48 45 34 37 41 44 46 46 45 40 38 38 37 34 34 35 39 36 32 36 32
22 22 23 25 24 26 31 34 31 41 45 46 62 56 54 55 52 44 49 54 50 51 47 51 46 47 44 42 36 40 41 42 46 50 48 44 43 44 44 44 43 42 41 35 38 40 41
26 26 26 25 25 28 30 36 37 49 59 60 68 55 58 54 47 41 47 56 52 49 47 53 43 45 39 38 36 36 40 40 50 48 47 47 44 41 42 43 42 42 39 40 38 51 56
37 27 26 25 26 25 38 34 51 49 58 68 71 62 54 53 48 43 51 57 60 51 48 47 46 38 38 37 34 39 40 43 47 49 48 47 43 40 43 44 41 44 43 42 36 36 34
45 37 33 40 46 39 38 40 57 52 63 81 73 63 56 56 54 46 51 59 58 51 44 47 44 37 34 34 33 36 38 42 47 51 49 48 44 47 50 50 51 49 43 36 32 27 18
36 48 51 50 51 60 60 55 73 78 70 78 71 61 58 66 60 52 49 51 50 49 45 63 50 44 36 38 39 36 43 44 46 48 48 43 46 48 47 44 40 33 24 17 16 18 21
42 53 50 61 59 56 48 58 74 79 76 77 71 61 63 73 62 57 56 53 48 47 43 45 49 43 36 39 40 36 44 50 46 48 44 37 35 36 30 27 27 26 23 21 18 17 16
47 47 57 57 54 54 59 79 92 92 83 73 73 65 67 74 65 67 64 57 45 40 40 42 41 43 36 39 42 42 44 41 40 37 37 31 36 35 34 36 36 29 30 21 20 23 17
51 56 69 66 58 82 86 92 95 86 72 72 76 68 74 75 77 75 74 70 57 41 42 46 45 41 39 37 40 29 38 41 46 41 40 38 33 29 27 32 26 24 31 28 30 33 28
90 78 90 91 84 93 99 92 90 82 76 79 78 78 87 86 84 82 68 70 65 55 52 47 58 50 52 48 41 41 41 45 43 40 46 49 55 51 46 41 37 41 51 46 39 56 41
91 96 95 99 85 94 98 98 98 88 78 76 79 85 87 77 78 73 65 61 63 54 73 56 46 55 55 54 48 43 40 49 57 50 49 57 65 67 63 64 65 60 53 45 37 45 66
97 96 95 93 84 84 93 93 95 97 87 82 83 91 83 84 83 79 70 72 57 57 72 80 57 52 51 59 57 56 51 53 58 46 58 64 66 69 61 58 62 68 68 76 72 43 59
96 94 95 91 94 84 95 97 94 90 83 87 93 82 80 83 91 84 78 65 62 74 78 80 84 74 76 79 63 70 59 55 52 61 73 71 72 72 73 61 62 76 69 86 97 78 92
96 97 94 89 92 96 94 95 98 98 91 95 91 88 90 94 96 96 82 69 75 98 98 96 87 80 69 84 82 82 64 54 66 77 86 83 71 68 78 62 72 84 100 98 95 99 98
96 94 95 97 89 98 94 92 96 96 97 98 97 93 79 97 100 96 84 91 93 99 96 100 97 94 86 86 92 100 82 70 70 84 93 80 64 62 69 81 85 96 80 92 95 88 100
100 96 100 93 99 98 91 98 96 96 97 98 96 95 78 93 98 95 86 79 93 91 94 99 96 92 100 100 96 96 97 96 87 84 84 72 77 65 65 95 98 99 95 99 100 100 100
98 100 92 94 96 97 94 98 97 96 97 98 94 97 91 98 93 96 95 98 84 90 96 96 97 95 94 100 100 96 94 84 94 98 86 81 86 80 70 90 88 87 86 86 91 98 72
96 96 95 96 97 86 97 96 96 95 98 98 96 94 89 93 93 94 96 91 78 71 89 97 97 98 99 97 98 95 96 96 94 99 98 95 89 93 84 88 100 100 100 100 100 96 94
97 96 97 97 96 97 98 97 93 97 97 97 92 74 81 71 66 93 94 96 87 79 98 98 95 97 99 96 98 97 97 98 94 94 97 97 91 95 85 89 94 94 91 95 88 70 40
98 97 97 96 97 93 94 97 96 97 97 96 68 64 60 61 82 99 95 92 95 100 98 96 97 97 97 96 99 99 99 98 96 97 95 95 88 96 74 95 95 86 90 88 43 36 43
97 98 97 97 97 100 97 96 92 89 84 66 61 71 97 96 97 97 95 97 98 96 96 97 97 97 96 98 96 98 98 100 100 99 100 100 100 100 85 94 88 71 50 43 49 74 100
97 97 97 96 98 97 96 94 80 67 59 72 66 80 84 87 92 97 96 97 97 96 97 97 98 98 94 98 99 98 96 99 99 100 100 100 100 95 74 56 48 44 37 67 100 99 100
97 98 95 97 95 95 95 95 91 80 74 71 73 77 95 92 96 95 94 97 97 99 100 98 98 94 100 97 94 92 95 100 100 100 100 99 77 48 43 49 62 46 78 96 100 94 77
95 96 96 99 97 91 89 87 81 82 74 68 81 81 90 98 84 80 90 98 100 99 100 98 98 100 100 98 98 100 100 100 98 77 53 46 50 67 68 79 98 72 100 100 86 57 41
99 96 90 90 97 98 95 89 90 85 86 90 94 95 86 80 81 90 94 100 100 100 99 95 86 99 100 100 100 99 86 56 36 27 58 92 100 100 100 100 93 100 100 88 79 65 54
98 92 93 97 97 91 81 64 70 85 93 89 88 89 88 88 100 96 98 96 91 81 71 64 50 71 75 69 53 33 18 17 22 43 92 100 100 100 100 100 99 100 96 84 64 100 98
96 100 88 71 41 53 77 73 61 74 82 56 75 97 99 100 96 78 43 34 35 45 53 37 51 45 34 17 10 11 24 94 100 100 100 98 100 100 100 84 100 100 89 84 76 100 100
Wind_Speed
41 40 42 40 38 39 36 35 41 37 38 39 39 42 41 42 40 40 42 43 39 32 31 29 27 22 22 22 23 22 23 24 22 19 18 24 24 23 21 21 22 25 26 26 26 29 33
42 43 42 43 40 37 34 37 38 39 38 42 43 40 37 34 33 35 37 38 36 31 30 31 26 21 21 21 22 23 21 23 24 23 24 25 24 23 21 24 28 30 30 31 32 35 37
45 45 44 43 41 38 36 44 46 40 39 41 39 33 32 31 33 33 35 34 30 29 28 30 26 20 22 22 22 22 23 24 25 26 26 28 28 28 29 31 33 33 36 34 31 35 39
48 44 43 45 41 38 37 43 43 43 42 42 37 31 34 36 36 35 35 32 28 28 26 29 26 25 24 23 22 21 21 23 24 26 28 31 32 30 31 32 33 34 36 38 31 35 38
47 40 42 44 43 39 37 41 41 43 42 41 34 33 34 38 37 35 33 29 26 27 24 28 25 26 23 18 22 20 21 22 22 26 27 29 30 29 29 32 35 33 40 38 39 34 38
47 43 43 42 42 39 37 44 42 45 46 35 33 33 35 38 35 34 33 30 23 26 23 31 26 24 19 17 20 19 20 22 22 24 26 28 30 30 31 35 39 39 40 41 42 41 42
51 46 42 45 47 44 46 45 46 50 42 34 34 35 35 38 37 34 34 32 27 27 24 29 27 26 28 18 19 19 18 19 21 23 26 29 30 29 34 38 42 42 45 47 47 48 51
49 48 44 47 47 43 41 42 44 43 40 36 35 36 38 39 37 36 38 34 31 26 18 30 27 28 27 23 18 17 18 18 19 23 27 31 32 36 38 40 42 45 44 43 47 47 55
53 59 53 52 53 48 48 46 47 44 41 39 37 38 40 39 37 36 36 35 36 32 29 19 25 24 25 23 20 22 21 22 27 28 31 35 32 39 44 49 52 49 46 49 54 56 60
57 57 51 55 53 51 51 48 43 43 43 37 39 41 42 42 37 37 36 35 35 31 33 25 21 24 22 22 21 23 23 28 31 36 39 41 40 45 47 47 49 53 53 58 62 63 66
57 55 55 57 57 49 44 44 43 41 41 40 41 45 43 41 41 43 37 36 37 36 38 30 21 24 24 26 28 34 29 32 35 40 45 46 50 54 57 57 58 55 57 61 62 64 67
66 65 60 57 53 48 44 45 44 44 41 41 43 42 40 45 44 45 41 39 39 40 39 34 29 27 28 32 35 37 39 40 45 48 49 46 49 51 54 57 60 58 61 66 63 59 66
70 60 50 50 48 48 45 46 45 47 45 46 46 45 42 43 43 40 42 44 44 43 35 39 38 30 33 34 39 42 43 43 49 54 55 54 54 56 59 60 65 66 64 68 70 68 60
63 60 50 48 46 49 48 48 46 47 50 48 48 44 46 44 41 40 43 44 46 43 39 37 40 41 43 40 45 49 51 50 53 57 54 55 58 59 60 61 59 60 63 63 65 69 64
63 55 51 51 52 53 45 47 44 47 48 46 41 45 46 42 40 43 44 47 48 46 45 44 42 46 46 47 50 53 56 58 61 59 58 59 62 62 59 62 65 63 67 63 63 66 65
61 50 49 53 53 48 47 44 41 40 41 45 47 46 49 43 38 41 43 45 48 48 49 49 50 51 50 51 57 61 61 61 64 64 59 60 60 62 62 66 66 65 62 62 64 64 63
58 55 56 56 56 49 49 47 42 44 44 37 44 49 47 46 42 46 47 45 47 45 49 49 50 46 48 56 61 62 65 67 68 64 59 60 63 65 70 71 69 66 68 65 64 65 65
57 58 58 56 55 52 52 48 52 50 37 45 47 42 46 49 52 54 47 43 46 47 52 46 46 50 54 60 64 67 67 69 60 58 64 65 65 69 70 66 63 62 63 62 59 59 62
53 56 56 56 56 52 50 47 52 45 43 41 46 49 49 49 53 52 54 52 52 56 58 58 56 57 61 65 67 64 62 61 63 66 68 70 71 71 67 64 63 66 67 67 68 69 72
55 61 64 59 56 54 47 49 37 39 51 54 48 49 51 56 60 61 58 52 54 60 62 60 61 62 66 65 61 63 62 64 67 70 69 70 69 65 65 61 61 63 62 63 63 68 70
60 53 56 57 58 51 47 48 49 51 46 44 48 54 54 61 63 67 60 60 62 64 69 68 66 64 61 64 63 64 66 68 70 72 71 69 68 67 67 66 65 66 69 69 67 62 61
67 69 57 63 67 69 60 49 51 44 58 55 55 59 61 65 63 60 59 60 64 69 67 65 66 64 64 64 65 66 68 70 71 70 69 69 69 69 68 70 71 73 74 66 60 61 62
55 55 40 41 43 61 46 38 38 43 52 56 53 54 50 61 62 63 64 65 65 67 64 62 62 64 68 66 67 67 68 68 67 67 66 68 71 72 77 71 70 77 61 58 51 39 33
50 47 45 45 45 59 63 46 41 46 53 50 51 54 59 63 58 56 58 60 59 64 66 67 67 65 66 66 64 66 67 67 69 67 68 72 71 64 63 60 68 62 55 38 37 40 46
48 36 39 40 50 54 51 47 48 52 54 57 55 53 51 55 58 59 61 65 62 63 66 66 66 67 64 65 69 71 71 73 73 73 70 67 63 59 59 53 49 45 25 26 35 31 40
44 41 36 35 42 49 54 55 59 60 63 64 58 59 57 55 58 59 61 60 63 66 67 66 64 64 67 72 75 77 75 73 69 67 61 60 58 52 47 43 34 23 26 34 36 36 35
39 39 39 38 39 45 52 56 55 56 55 56 58 52 49 53 57 60 64 65 64 64 64 67 70 71 74 75 76 75 73 67 65 59 49 41 34 37 35 33 34 26 30 31 36 39 25
36 38 37 32 34 41 46 47 47 47 51 54 59 57 55 56 61 62 59 61 64 67 71 73 75 75 77 75 74 69 67 59 54 46 31 32 36 38 38 40 42 40 40 41 36 23 13
26 29 30 32 38 43 44 47 47 54 59 57 54 55 54 52 53 57 60 64 68 71 74 77 75 74 76 72 63 54 45 28 25 27 27 34 35 39 38 35 34 35 30 23 17 10 9
Wind_Direction
255 260 264 270 274 277 283 286 287 292 299 302 303 306 304 306 305 300 301 302 307 307 306 304 308 306 299 294 291 280 267 255 255 257 265 267 265 264 267 270 269 271 268 274 274 272 277
254 260 264 267 269 274 277 285 289 296 299 300 305 301 303 306 308 307 302 301 302 302 302 302 306 306 299 293 294 286 270 257 252 255 254 258 260 263 267 272 274 274 277 277 276 279 283
252 257 262 264 268 271 276 285 287 290 299 304 301 298 303 310 313 312 304 299 298 297 298 299 299 298 294 303 293 286 275 267 257 258 260 258 258 266 269 273 274 275 278 276 281 288 290
250 253 258 266 266 266 273 281 283 291 295 297 299 298 302 305 307 308 305 303 297 296 299 298 295 292 296 293 293 284 275 273 268 261 262 264 266 267 272 272 275 281 282 291 293 291 296
249 251 259 262 265 265 271 275 281 290 295 297 294 297 301 302 306 304 306 309 308 302 305 297 293 291 297 289 288 283 281 276 264 262 261 264 266 272 272 276 278 286 289 291 296 302 299
250 250 254 258 262 264 266 274 281 285 294 290 289 295 299 303 307 308 307 306 310 303 312 299 301 295 297 288 282 280 279 278 270 268 269 266 270 275 276 277 282 285 288 292 297 299 295
246 248 253 259 264 262 268 272 283 284 285 280 284 291 296 304 305 307 306 304 307 304 308 293 298 295 297 292 283 282 280 277 278 279 277 278 276 278 275 279 285 289 291 295 297 297 299
247 250 253 259 256 254 262 275 281 280 278 280 285 288 293 300 301 308 307 307 304 299 298 290 296 295 293 293 287 285 285 282 280 280 281 282 289 288 286 285 288 288 293 295 292 300 301
245 253 257 250 253 255 265 272 276 279 277 279 282 285 292 296 295 302 307 308 308 305 299 283 285 284 284 281 278 280 284 287 290 287 285 287 294 292 294 294 293 290 291 293 294 298 301
242 247 247 247 249 255 268 269 272 274 275 277 282 283 285 292 297 297 300 304 306 308 300 299 281 278 280 277 273 271 279 287 290 290 289 288 288 288 287 289 291 290 291 289 291 296 294
243 240 243 246 251 262 261 261 266 270 272 275 282 283 282 287 291 296 297 294 300 305 304 302 289 280 277 274 275 273 277 283 283 282 285 288 288 286 285 288 286 290 294 294 296 299 300
241 241 250 255 252 261 257 261 264 268 271 277 281 282 282 287 286 291 292 294 292 294 301 299 287 285 276 274 277 278 284 289 292 290 288 290 285 285 283 282 287 292 296 297 299 296 294
244 247 249 249 247 250 255 260 264 268 272 273 280 284 289 290 286 285 286 290 287 287 296 294 295 285 280 277 279 280 283 286 292 292 298 297 293 293 293 295 295 299 302 299 300 299 301
241 248 246 243 245 254 253 260 266 268 269 274 280 284 291 291 282 278 282 282 283 290 291 283 287 287 283 278 278 284 287 290 290 295 300 295 293 295 297 296 298 301 301 299 295 296 292
240 244 246 251 252 251 257 266 270 269 272 273 277 285 286 286 282 278 282 280 281 287 287 286 281 281 283 285 286 291 292 292 291 298 297 295 297 297 297 296 298 297 295 293 290 289 285
241 244 248 251 254 251 261 259 263 267 271 273 280 282 283 274 279 274 274 279 288 289 286 286 284 287 284 283 288 291 290 291 295 295 295 292 293 293 292 294 296 293 292 289 288 287 285
239 248 247 251 255 255 263 257 264 268 275 275 281 281 275 269 271 272 273 284 293 287 290 287 282 288 292 289 287 285 284 288 291 292 291 290 292 294 293 293 294 291 288 287 286 285 286
242 244 250 249 253 255 259 261 267 264 263 270 277 262 265 269 270 271 277 285 290 290 285 283 285 290 289 283 282 282 285 286 288 287 288 289 290 291 291 292 289 286 286 284 282 285 284
239 245 247 248 249 255 253 256 264 271 261 264 277 265 260 272 282 274 282 285 293 290 290 278 278 282 282 283 284 283 285 284 284 286 287 290 289 290 291 288 288 287 289 289 288 287 288
245 242 244 242 249 242 255 257 259 267 272 268 273 279 277 277 280 286 279 283 287 286 292 285 273 277 283 282 281 281 282 282 283 284 286 287 287 287 287 285 284 285 287 287 283 281 289
240 235 244 239 236 244 242 241 258 256 251 265 281 284 285 286 288 285 277 276 287 289 288 281 276 282 282 282 282 282 282 282 284 285 287 287 287 286 286 285 284 286 286 284 283 288 288
238 236 246 244 236 242 244 239 255 256 258 287 285 282 285 285 286 272 281 280 283 282 281 276 281 282 281 281 280 279 281 283 286 287 287 288 287 285 288 286 285 285 283 289 289 291 292
226 225 224 230 234 231 245 251 267 271 272 273 283 289 285 278 273 272 280 278 276 282 283 282 283 282 282 281 280 281 283 285 288 289 288 286 285 284 285 284 285 283 295 290 295 294 273
217 224 232 237 234 230 240 261 265 269 273 280 286 286 285 282 279 279 281 277 282 286 282 281 281 280 279 278 281 283 287 289 287 285 281 282 286 290 292 289 286 295 290 291 269 269 270
246 236 242 249 251 249 268 276 273 275 276 280 284 285 281 282 282 289 289 284 282 280 278 278 279 280 282 283 287 288 287 283 280 282 284 287 287 288 288 289 292 296 298 270 267 272 281
242 238 244 253 258 265 272 279 280 275 275 278 280 279 284 283 283 286 284 282 282 280 277 279 282 285 285 284 284 281 282 285 289 290 294 295 296 294 291 292 292 298 257 273 264 274 286
238 244 246 253 260 267 272 273 270 270 273 275 274 277 284 286 287 284 283 281 279 279 283 285 288 282 280 278 279 282 285 289 290 288 288 280 272 272 277 282 285 281 275 263 267 278 252
237 245 252 262 264 267 269 273 276 277 275 276 278 282 285 283 277 279 281 286 289 287 284 283 283 281 281 283 287 292 293 291 285 285 278 273 263 265 261 263 266 264 268 265 256 258 241
237 247 255 261 264 264 265 267 274 273 277 283 285 280 275 277 283 287 285 282 280 278 279 279 282 286 287 291 291 291 289 285 276 274 268 262 260 264 261 266 265 269 261 233 236 232 254